[[{"header":{"parameterUnit":"m.s-1","parameterCategory":2,"la1":30.2991,"la2":30.254,"lo1":-89.0895,"lo2":-89.0444,"dx":0.0017,"dy":0.0017,"nx":28,"ny":28,"refTime":"2022-11-03T15:00:00:Z","depth":"0","parameterNumber":2,"parameterNumberName":"U-component_of_CURRENTS"},"data":[0,0,0,0,0,0,0,0,0,0,0,0,0,0,0,0,0,0,0,0,0,0,0,0,0,0,0,0,0,0,0,0,0,0,0,0,0,0,0,0,0,0,0,0,0,0,0,0,0,0,0,0,0,0,0,0,0,0,0.2242,0.2241,0,0.2193,0.2192,0.2191,0.2146,0.2146,0.2146,0.2145,0.2092,0.2091,0.209,0,0,0,0,0,0,0,0,0,0,0,0,0,0.2266,0.2266,0.2242,0.2241,0.2241,0.2193,0.2192,0.2191,0.2146,0.2146,0.2146,0.2145,0.2092,0.2091,0.2089,0,0,0,0,0,0,0,0,0,0,0,0,0,0.2237,0.2266,0.2242,0.2215,0.2213,0.2193,0.2192,0.2191,0.2146,0.2146,0.2145,0.2145,0.2093,0.2091,0.2089,0.2085,0,0,0.2084,0.2083,0,0,0,0,0,0,0,0,0.2239,0.2236,0.222,0.2217,0.2214,0.2178,0.2181,0.2156,0.2146,0.2168,0.2145,0.2145,0.2123,0.2118,0.2105,0.2083,0.208,0.2084,0.2082,0.2082,0.2081,0,0,0,0,0,0,0,0.2241,0.2238,0.2219,0.2219,0.2216,0.2196,0.2191,0.2176,0.2145,0.2166,0.2163,0.2163,0.2121,0.2107,0.2104,0.208,0.2084,0.2082,0.2081,0.208,0.2052,0.2053,0,0,0,0,0,0,0.2256,0.224,0.2221,0.2218,0.223,0.2196,0.2191,0.2187,0.2145,0.214,0.2164,0.2162,0.211,0.2106,0.2102,0.2102,0.2082,0.208,0.2079,0.2052,0.2052,0.2053,0,0,0,0,0,0,0.2257,0.2255,0.2223,0.2231,0.2225,0.2197,0.2193,0.2187,0.2177,0.2144,0.2138,0.2162,0.211,0.2104,0.2086,0.2099,0.2079,0.2078,0.2052,0.2052,0.2052,0.2098,0,0,0,0,0,0,0.2257,0.2255,0.2258,0.2232,0.2226,0.2218,0.2193,0.2186,0.2179,0.2176,0.2141,0.2135,0.2109,0.2089,0.2085,0.2097,0.2076,0.2051,0.2052,0.2052,0.2096,0.21,0.2103,0,0,0,0,0,0.2258,0.2272,0.2258,0.2256,0.2231,0.2219,0.2214,0.219,0.218,0.2179,0.2151,0.2136,0.209,0.2088,0.2082,0.2094,0.2051,0.2052,0.2052,0.2095,0.2099,0.2103,0,0,0,0,0,0,0.2284,0.2268,0.2253,0.226,0.2242,0.2213,0.2215,0.2198,0.2174,0.2174,0.2137,0.2129,0.2125,0.2101,0.2099,0.2088,0.207,0.207,0.2104,0.2108,0.2112,0.2219,0.2075,0,0,0,0,0,0.2292,0.23,0.2273,0.2281,0.2274,0.2245,0.2238,0.2223,0.2201,0.219,0.2162,0.2137,0.2123,0.2108,0.2095,0.2082,0.215,0.2087,0.209,0.2094,0.2177,0.2325,0.2353,0.2055,0.2055,0.2055,0,0,0.2305,0.2299,0.2302,0.2287,0.2272,0.2268,0.2239,0.2239,0.2237,0.2189,0.2179,0.2157,0.2126,0.2116,0.2111,0.2094,0.2189,0.2095,0.2098,0.2181,0.233,0.236,0.2387,0.2056,0.2056,0.2055,0,0,0.2343,0.2328,0.2346,0.2331,0.2318,0.2298,0.2301,0.2273,0.2262,0.2245,0.2219,0.223,0.2166,0.2177,0.2166,0.219,0.2215,0.2145,0.2241,0.2381,0.241,0.2436,0.2468,0.2497,0.2135,0.2136,0.2136,0,0.2366,0.2372,0.2349,0.2356,0.2353,0.2314,0.2326,0.2307,0.2277,0.2291,0.2249,0.2254,0.222,0.2261,0.226,0.2209,0.2257,0.222,0.2395,0.2422,0.2449,0.2476,0.2508,0.2138,0.2138,0.2137,0.2137,0,0.2408,0.2407,0.2418,0.2411,0.2403,0.2409,0.238,0.2378,0.2356,0.2348,0.2386,0.2359,0.2383,0.2342,0.2304,0.2444,0.2402,0.2393,0.2398,0.2483,0.2502,0.2535,0.2141,0.214,0.214,0.2139,0,0,0.2484,0.2455,0.246,0.2462,0.2434,0.244,0.2443,0.2453,0.2489,0.2468,0.2542,0.2522,0.2544,0.2543,0.2505,0.261,0.2777,0.2582,0.2588,0.2639,0.3028,0.2872,0.2891,0.2805,0.2813,0.2819,0.2935,0,0.2529,0.2548,0.2523,0.2544,0.2548,0.252,0.2534,0.2542,0.2537,0.2593,0.2619,0.2655,0.2601,0.2618,0.2731,0.2772,0.2881,0.2744,0.2921,0.2926,0.2802,0.2933,0.2784,0.2868,0.2967,0.2972,0.2976,0,0.2582,0.2587,0.2609,0.2616,0.2621,0.2632,0.2673,0.268,0.2735,0.2742,0.2817,0.2821,0.2943,0.2901,0.3098,0.3009,0.3065,0.3096,0.3101,0.2996,0.2837,0.2817,0.2924,0.2812,0.3026,0.3022,0.3018,0,0.2647,0.2654,0.2677,0.2673,0.2671,0.2701,0.2711,0.2742,0.2752,0.2859,0.2883,0.3028,0.3065,0.3232,0.3236,0.321,0.3446,0.3407,0.3322,0.3305,0.3243,0.3208,0.3308,0.3642,0.3642,0.3642,0.3641,0,0.2696,0.2716,0.2713,0.2723,0.2768,0.2766,0.2819,0.2843,0.2896,0.2923,0.2981,0.3025,0.3167,0.3252,0.3331,0.3393,0.3522,0.3411,0.3377,0.3233,0.3198,0.3147,0.3081,0.3646,0.3645,0.3644,0.3643,0,0.273,0.2732,0.2755,0.2777,0.2788,0.2821,0.283,0.286,0.2911,0.2958,0.2991,0.3055,0.316,0.3241,0.3444,0.3441,0.3444,0.3547,0.3297,0.3235,0.305,0.2989,0.3012,0.2932,0.3531,0.3529,0.3527,0,0.2737,0.2754,0.2778,0.2781,0.2783,0.2816,0.2822,0.2864,0.2872,0.2946,0.2967,0.3059,0.3082,0.3252,0.3319,0.3433,0.3346,0.332,0.3288,0.3082,0.2994,0.2869,0.2793,0.318,0.3175,0.3171,0.3168,0,0.2735,0.2748,0.2753,0.2755,0.2766,0.2763,0.2778,0.2786,0.2829,0.2855,0.2883,0.2921,0.3034,0.3051,0.3136,0.3197,0.3122,0.3242,0.3166,0.2872,0.2623,0.2509,0.2971,0.3134,0.3138,0.314,0.3142,0.3143,0.2714,0.2705,0.2701,0.2697,0.2701,0.2673,0.2644,0.2658,0.2654,0.2659,0.2767,0.2782,0.2825,0.2929,0.2948,0.2846,0.2896,0.2792,0.2772,0.2692,0.2528,0.2851,0.2883,0.2885,0.2886,0.2888,0.2889,0,0.2637,0.2627,0.2628,0.2598,0.2558,0.2588,0.2569,0.2514,0.2466,0.254,0.2558,0.2564,0.2537,0.2568,0.2493,0.2396,0.2339,0.233,0.2179,0.2162,0.259,0.2484,0.2265,0.2265,0.2265,0.2266,0.2266,0.2266,0.259,0.2547,0.2539,0.2446,0.2424,0.2329,0.2295,0.2242,0.2261,0.2207,0.2205,0.2264,0.2242,0.2164,0.2022,0.2,0.1872,0.1767,0.1801,0.2126,0.2169,0.221,0.2099,0.1804,0.1803,0.1298,0.1293,0.129]},{"header":{"parameterUnit":"m.s-1","parameterCategory":2,"la1":30.2991,"la2":30.254,"lo1":-89.0895,"lo2":-89.0444,"dx":0.0017,"dy":0.0017,"nx":28,"ny":28,"refTime":"2022-11-03T15:00:00:Z","depth":"0","parameterNumber":3,"parameterNumberName":"V-component_of_CURRENTS"},"data":[0,0,0,0,0,0,0,0,0,0,0,0,0,0,0,0,0,0,0,0,0,0,0,0,0,0,0,0,0,0,0,0,0,0,0,0,0,0,0,0,0,0,0,0,0,0,0,0,0,0,0,0,0,0,0,0,0,0,0.0162,0.0162,0,0.0149,0.0148,0.0148,0.0126,0.0126,0.0126,0.0125,0.002,0.0017,0.0015,0,0,0,0,0,0,0,0,0,0,0,0,0,0.0161,0.0161,0.0162,0.0162,0.0162,0.0149,0.0148,0.0148,0.0126,0.0126,0.0126,0.0125,0.0021,0.0017,0.0014,0,0,0,0,0,0,0,0,0,0,0,0,0,0.0154,0.0161,0.0162,0.0151,0.015,0.0149,0.0148,0.0148,0.0126,0.0126,0.0126,0.0125,0.0022,0.0018,0.0014,-0.0004,0,0,0.0002,0.0,0,0,0,0,0,0,0,0,0.0154,0.0154,0.0153,0.0152,0.0151,0.014,0.0109,0.0093,0.0126,0.0133,0.0125,0.0125,0.0053,0.0047,0.0043,-0.0009,-0.0013,0.0002,-0.0001,-0.0002,-0.0004,0,0,0,0,0,0,0,0.0155,0.0154,0.0155,0.0153,0.0152,0.0144,0.0143,0.0106,0.0092,0.0133,0.0131,0.0133,0.0052,0.0047,0.004,-0.0015,0.0002,-0.0002,-0.0004,-0.0006,-0.0068,-0.0068,0,0,0,0,0,0,0.0161,0.0155,0.0155,0.0155,0.0154,0.0145,0.0143,0.0142,0.0094,0.0088,0.0134,0.0132,0.0054,0.0045,0.0036,0.0044,-0.0002,-0.0006,-0.0008,-0.0069,-0.0068,-0.0067,0,0,0,0,0,0,0.0161,0.0161,0.0156,0.0156,0.0155,0.0145,0.0145,0.0142,0.0139,0.0096,0.0088,0.0133,0.0053,0.0042,0.0008,0.0038,-0.0008,-0.0011,-0.007,-0.0069,-0.0068,0.0038,0,0,0,0,0,0,0.0161,0.0161,0.016,0.0156,0.0155,0.0158,0.0145,0.0142,0.0141,0.014,0.0093,0.0083,0.0052,0.0015,0.0005,0.0032,-0.0014,-0.0071,-0.0069,-0.0068,0.0034,0.0043,0.005,0,0,0,0,0,0.0161,0.0164,0.016,0.016,0.0155,0.0159,0.0157,0.0148,0.0142,0.0143,0.0112,0.0084,0.0016,0.0012,-0.0,0.0027,-0.0071,-0.007,-0.0068,0.003,0.0041,0.005,0,0,0,0,0,0,0.016,0.0163,0.0158,0.016,0.0161,0.0156,0.0158,0.0152,0.013,0.0127,0.0084,0.0072,0.0058,0.0021,0.0017,0.0012,-0.0029,-0.003,0.005,0.006,0.0068,0.0158,-0.0018,0,0,0,0,0,0.0161,0.0167,0.0165,0.0168,0.017,0.0164,0.0164,0.0161,0.0145,0.0136,0.0104,0.0073,0.0056,0.0039,0.0011,-0.0002,0.0034,0.001,0.0018,0.0025,0.009,0.0227,0.0256,-0.0062,-0.0062,-0.0062,0,0,0.0163,0.0165,0.0168,0.0169,0.0169,0.018,0.0163,0.0169,0.0181,0.0126,0.0122,0.0096,0.0058,0.0055,0.0046,0.0026,0.0108,0.0027,0.0034,0.0097,0.0232,0.0264,0.0293,-0.0061,-0.0062,-0.0062,0,0,0.0181,0.0171,0.0187,0.019,0.0197,0.0193,0.0197,0.0193,0.0193,0.0183,0.0162,0.0176,0.0105,0.0127,0.0119,0.0156,0.0149,0.0114,0.0232,0.0362,0.0392,0.0419,0.0403,0.0429,0.0119,0.0119,0.012,0,0.0184,0.0205,0.0191,0.021,0.0225,0.0202,0.023,0.0223,0.0209,0.0246,0.019,0.022,0.0164,0.0242,0.0242,0.0185,0.021,0.0196,0.0382,0.0409,0.0436,0.0415,0.0441,0.0125,0.0124,0.0124,0.0123,0,0.0217,0.0236,0.0246,0.0264,0.0271,0.0292,0.0288,0.0301,0.0291,0.0313,0.038,0.0343,0.039,0.0349,0.0295,0.0446,0.038,0.038,0.0373,0.0476,0.0442,0.0469,0.0132,0.013,0.0129,0.0127,0,0,0.0232,0.0267,0.0272,0.0311,0.031,0.0334,0.0355,0.0411,0.0491,0.0473,0.0609,0.0569,0.0604,0.0602,0.0564,0.0652,0.0783,0.0594,0.0598,0.0606,0.0986,0.0854,0.0867,0.0834,0.0841,0.0847,0.0853,0,0.0271,0.0336,0.0332,0.0399,0.0439,0.0439,0.0481,0.0528,0.0564,0.0678,0.0712,0.0794,0.0681,0.0729,0.0809,0.0819,0.0875,0.0776,0.0864,0.0864,0.0763,0.0904,0.0844,0.0843,0.0878,0.0883,0.0886,0,0.0309,0.0358,0.0434,0.052,0.054,0.0574,0.0693,0.0728,0.0862,0.0902,0.1021,0.1049,0.1168,0.1069,0.118,0.1125,0.1076,0.1057,0.1058,0.0946,0.0788,0.0764,0.0889,0.0747,0.0926,0.0922,0.092,0,0.0363,0.0432,0.051,0.0531,0.0611,0.067,0.0716,0.0823,0.0902,0.1085,0.1188,0.1323,0.1402,0.1445,0.135,0.1305,0.1456,0.1388,0.1208,0.1189,0.1167,0.1137,0.1212,0.1504,0.1504,0.1504,0.1504,0,0.0419,0.0488,0.0554,0.0606,0.0727,0.0754,0.0906,0.097,0.1121,0.1265,0.1332,0.1475,0.1518,0.1573,0.1482,0.1418,0.1559,0.1283,0.1243,0.1179,0.1153,0.1047,0.0981,0.1504,0.1504,0.1504,0.1504,0,0.0481,0.0514,0.0618,0.072,0.0758,0.0852,0.0985,0.1102,0.122,0.1422,0.1493,0.1637,0.1703,0.1662,0.1704,0.1561,0.1437,0.1443,0.1282,0.1224,0.0914,0.0854,0.0942,0.0879,0.129,0.1288,0.1286,0,0.0524,0.0582,0.0699,0.076,0.0814,0.0941,0.1031,0.1146,0.1264,0.1505,0.1618,0.1748,0.1831,0.1797,0.1628,0.1475,0.136,0.1261,0.1191,0.0947,0.0853,0.0825,0.0764,0.1142,0.1139,0.1136,0.1134,0,0.0609,0.0643,0.0723,0.0836,0.0935,0.1056,0.1191,0.1297,0.1452,0.1608,0.1805,0.1902,0.1862,0.1735,0.1499,0.1366,0.1164,0.1201,0.1079,0.088,0.0741,0.0639,0.0966,0.1113,0.1115,0.1116,0.1118,0.1118,0.0662,0.072,0.0798,0.0909,0.1018,0.1151,0.1254,0.1396,0.1573,0.1796,0.1888,0.2022,0.1809,0.1513,0.1325,0.0911,0.0981,0.0766,0.0741,0.0753,0.0655,0.0853,0.0876,0.0877,0.0877,0.0878,0.0878,0,0.0702,0.0755,0.0857,0.0983,0.1096,0.115,0.1339,0.1439,0.1622,0.1825,0.1966,0.1917,0.1603,0.13,0.0768,0.0507,0.0449,0.0374,0.0362,0.0343,0.0638,0.059,0.0397,0.0397,0.0397,0.0397,0.0397,0.0397,0.0724,0.0796,0.0839,0.1004,0.1102,0.1247,0.1348,0.15,0.1655,0.1845,0.1924,0.1981,0.1696,0.0856,0.0277,0.016,0.0032,-0.0007,-0.0047,0.0149,0.0184,0.0218,0.0159,-0.0121,-0.0122,-0.0334,-0.0337,-0.0338]}],[{"header":{"parameterUnit":"m.s-1","parameterCategory":2,"la1":30.2991,"la2":30.254,"lo1":-89.0895,"lo2":-89.0444,"dx":0.0017,"dy":0.0017,"nx":28,"ny":28,"refTime":"2022-11-03T15:00:00:Z","depth":"2","parameterNumber":2,"parameterNumberName":"U-component_of_CURRENTS"},"data":[0,0,0,0,0,0,0,0,0,0,0,0,0,0,0,0,0,0,0,0,0,0,0,0,0,0,0,0,0,0,0,0,0,0,0,0,0,0,0,0,0,0,0,0,0,0,0,0,0,0,0,0,0,0,0,0,0,0,0.1774,0.1775,0,0.1951,0.1954,0.1956,0.2091,0.2091,0.2092,0.2092,0.2164,0.2166,0.2167,0,0,0,0,0,0,0,0,0,0,0,0,0,0.1708,0.1709,0.1774,0.1775,0.1777,0.1951,0.1954,0.1957,0.2091,0.2091,0.2092,0.2092,0.2164,0.2165,0.2167,0,0,0,0,0,0,0,0,0,0,0,0,0,0.1803,0.1709,0.1774,0.1858,0.1867,0.195,0.1954,0.1958,0.2091,0.2091,0.2092,0.2093,0.2163,0.2165,0.2167,0.2166,0,0,0.2174,0.2175,0,0,0,0,0,0,0,0,0.1798,0.1807,0.1844,0.1853,0.1862,0.1993,0.1957,0.202,0.209,0.2014,0.2092,0.2093,0.2091,0.2099,0.2144,0.217,0.2173,0.2174,0.2176,0.2177,0.2177,0,0,0,0,0,0,0,0.1791,0.1801,0.1852,0.1846,0.1857,0.1941,0.1955,0.1972,0.2051,0.2021,0.2029,0.2036,0.2097,0.2142,0.2146,0.2174,0.2174,0.2176,0.2178,0.2178,0.2229,0.2229,0,0,0,0,0,0,0.1743,0.1793,0.1846,0.1857,0.1822,0.194,0.1956,0.1957,0.2053,0.2067,0.2035,0.2041,0.2138,0.2144,0.2149,0.22,0.2177,0.2179,0.218,0.2229,0.2229,0.2229,0,0,0,0,0,0,0.1741,0.1746,0.1839,0.1824,0.184,0.1938,0.1939,0.196,0.2027,0.2063,0.2077,0.2082,0.2139,0.2146,0.2187,0.2201,0.218,0.2182,0.2229,0.2229,0.2229,0.227,0,0,0,0,0,0,0.1739,0.1744,0.1743,0.1819,0.1839,0.1899,0.1939,0.1962,0.2024,0.2035,0.2107,0.2114,0.214,0.2184,0.219,0.2204,0.2183,0.2229,0.2229,0.2229,0.2268,0.2271,0.2273,0,0,0,0,0,0.1736,0.1733,0.1741,0.1748,0.1828,0.1899,0.1919,0.1997,0.2025,0.206,0.2109,0.2113,0.2187,0.2187,0.2193,0.2208,0.2229,0.2229,0.2229,0.2267,0.227,0.2273,0,0,0,0,0,0,0.1726,0.1747,0.1759,0.1768,0.1827,0.1918,0.1953,0.2002,0.2075,0.2086,0.2126,0.2137,0.2179,0.2179,0.2177,0.2218,0.2203,0.2205,0.223,0.2233,0.2236,0.2293,0.2185,0,0,0,0,0,0.1709,0.1714,0.1754,0.1776,0.1787,0.1871,0.1912,0.1967,0.203,0.2068,0.2119,0.2154,0.2181,0.2196,0.2225,0.2248,0.2255,0.2254,0.2257,0.2259,0.2308,0.235,0.2363,0.223,0.223,0.223,0,0,0.1703,0.173,0.1726,0.1774,0.1822,0.1858,0.1902,0.1967,0.2021,0.2055,0.2145,0.2173,0.219,0.2231,0.2245,0.2234,0.2282,0.226,0.2262,0.2311,0.2352,0.2366,0.2378,0.223,0.223,0.223,0,0,0.1713,0.1719,0.172,0.1763,0.1827,0.1873,0.1886,0.1977,0.2035,0.2108,0.2143,0.2198,0.2234,0.2275,0.2287,0.2316,0.2301,0.2292,0.2354,0.2392,0.2405,0.2416,0.2369,0.2376,0.2287,0.2287,0.2287,0,0.1717,0.1724,0.1742,0.1773,0.1816,0.187,0.1909,0.1965,0.2075,0.2134,0.2134,0.225,0.2267,0.2329,0.235,0.2329,0.2317,0.2342,0.24,0.2412,0.2423,0.2372,0.238,0.2289,0.2289,0.2289,0.2289,0,0.1734,0.1743,0.1757,0.1798,0.1848,0.1898,0.1954,0.2021,0.2084,0.2161,0.2258,0.2299,0.2374,0.2367,0.2378,0.2455,0.2403,0.2404,0.2401,0.244,0.2381,0.2388,0.2292,0.2291,0.2291,0.229,0,0,0.1738,0.1758,0.1767,0.1794,0.1873,0.1923,0.199,0.2089,0.2149,0.2249,0.2337,0.2419,0.2466,0.2484,0.2489,0.2536,0.2579,0.2513,0.2514,0.248,0.2604,0.2488,0.2483,0.2591,0.2594,0.2596,0.2504,0,0.1758,0.1799,0.1817,0.1881,0.1903,0.1975,0.2045,0.2148,0.2215,0.2303,0.2383,0.2453,0.249,0.2511,0.2578,0.2588,0.2613,0.2601,0.2561,0.2559,0.2466,0.2495,0.2315,0.2214,0.2511,0.2512,0.2513,0,0.1777,0.1803,0.185,0.1927,0.1947,0.2002,0.2129,0.2196,0.2313,0.2375,0.2472,0.2506,0.2604,0.2603,0.2688,0.2675,0.2665,0.2664,0.2659,0.2565,0.2461,0.2237,0.2216,0.2525,0.2524,0.2523,0.2522,0,0.1792,0.1838,0.1883,0.1911,0.1994,0.2054,0.212,0.2238,0.2315,0.2406,0.2453,0.2562,0.2609,0.2657,0.2683,0.2681,0.2737,0.2712,0.2589,0.2575,0.2428,0.2397,0.2778,0.2778,0.2779,0.2779,0.2779,0,0.1824,0.1854,0.1888,0.1917,0.2004,0.2067,0.2169,0.2246,0.2349,0.2429,0.2489,0.2524,0.2641,0.2673,0.2681,0.2658,0.2733,0.2622,0.2574,0.2423,0.2394,0.2689,0.2681,0.2775,0.2776,0.2777,0.2777,0,0.1829,0.1852,0.1896,0.197,0.2006,0.2073,0.2201,0.2245,0.2351,0.2431,0.2461,0.254,0.2557,0.2614,0.2659,0.2638,0.2619,0.2586,0.2361,0.2291,0.2413,0.2407,0.2418,0.2414,0.241,0.2407,0.2405,0,0.1829,0.1842,0.1919,0.1956,0.1989,0.2083,0.2132,0.2252,0.2283,0.2414,0.2423,0.2478,0.2451,0.2446,0.2436,0.239,0.2509,0.2194,0.219,0.2439,0.2391,0.239,0.2389,0.1961,0.1955,0.1951,0.1947,0,0.1827,0.1854,0.1896,0.1925,0.1976,0.2046,0.2112,0.214,0.2253,0.2286,0.2285,0.2266,0.2269,0.2138,0.2121,0.2077,0.2189,0.209,0.2439,0.2091,0.2005,0.1958,0.1973,0.1904,0.1908,0.1911,0.1913,0.1915,0.1843,0.1839,0.1865,0.1891,0.1942,0.1959,0.1979,0.1994,0.2011,0.2017,0.2075,0.1987,0.199,0.1835,0.1763,0.1743,0.1889,0.182,0.1837,0.1859,0.1834,0.1749,0.1588,0.159,0.1592,0.1594,0.1595,0,0.1826,0.181,0.1818,0.1844,0.1831,0.191,0.1922,0.1853,0.1776,0.1796,0.1761,0.1562,0.1456,0.1492,0.1386,0.1356,0.1365,0.1305,0.1327,0.1369,0.1407,0.1362,0.0989,0.0988,0.0986,0.0984,0,0,0.1808,0.178,0.1726,0.1688,0.1734,0.1697,0.1688,0.1578,0.1527,0.1368,0.1338,0.1395,0.1437,0.1207,0.1158,0.107,0.1213,0.1015,0.1501,0.157,0.1606,0.17,0.1677,0,0,0,0,0]},{"header":{"parameterUnit":"m.s-1","parameterCategory":2,"la1":30.2991,"la2":30.254,"lo1":-89.0895,"lo2":-89.0444,"dx":0.0017,"dy":0.0017,"nx":28,"ny":28,"refTime":"2022-11-03T15:00:00:Z","depth":"2","parameterNumber":3,"parameterNumberName":"V-component_of_CURRENTS"},"data":[0,0,0,0,0,0,0,0,0,0,0,0,0,0,0,0,0,0,0,0,0,0,0,0,0,0,0,0,0,0,0,0,0,0,0,0,0,0,0,0,0,0,0,0,0,0,0,0,0,0,0,0,0,0,0,0,0,0,0.0164,0.0164,0,0.011,0.0109,0.0108,0.0045,0.0044,0.0044,0.0043,-0.0084,-0.0087,-0.009,0,0,0,0,0,0,0,0,0,0,0,0,0,0.0178,0.0178,0.0164,0.0164,0.0164,0.011,0.0109,0.0108,0.0045,0.0044,0.0044,0.0043,-0.0083,-0.0086,-0.009,0,0,0,0,0,0,0,0,0,0,0,0,0,0.0148,0.0178,0.0164,0.013,0.0126,0.011,0.0109,0.0107,0.0045,0.0044,0.0044,0.0043,-0.0082,-0.0086,-0.009,-0.0102,0,0,-0.0104,-0.0106,0,0,0,0,0,0,0,0,0.015,0.0147,0.0135,0.0132,0.0128,0.0088,0.0067,0.0035,0.0045,0.0071,0.0043,0.0042,-0.003,-0.0038,-0.0053,-0.0108,-0.0113,-0.0104,-0.0107,-0.0109,-0.011,0,0,0,0,0,0,0,0.0152,0.0149,0.0138,0.0135,0.0131,0.0105,0.0099,0.0061,0.002,0.0068,0.0065,0.0067,-0.0033,-0.0048,-0.0056,-0.0115,-0.0104,-0.0108,-0.0111,-0.0112,-0.0178,-0.0177,0,0,0,0,0,0,0.0171,0.0151,0.014,0.0137,0.0143,0.0106,0.01,0.0097,0.0022,0.0012,0.0068,0.0064,-0.004,-0.0051,-0.0061,-0.0071,-0.0109,-0.0113,-0.0115,-0.0179,-0.0178,-0.0177,0,0,0,0,0,0,0.0172,0.0171,0.0142,0.0147,0.0142,0.0107,0.0105,0.0097,0.008,0.0023,0.0011,0.0059,-0.0041,-0.0055,-0.0092,-0.0076,-0.0115,-0.0119,-0.018,-0.0179,-0.0177,-0.0096,0,0,0,0,0,0,0.0172,0.0171,0.0169,0.0148,0.0142,0.0137,0.0106,0.0097,0.0085,0.0079,0.0012,-0.0001,-0.0043,-0.0085,-0.0096,-0.0083,-0.0122,-0.0181,-0.0179,-0.0178,-0.0099,-0.0092,-0.0085,0,0,0,0,0,0.0173,0.0176,0.0169,0.0168,0.0143,0.0138,0.0132,0.0101,0.0085,0.0081,0.0038,0.0001,-0.0082,-0.0088,-0.0102,-0.0089,-0.0182,-0.018,-0.0178,-0.0103,-0.0093,-0.0085,0,0,0,0,0,0,0.0169,0.017,0.0162,0.0161,0.0154,0.0129,0.0124,0.0107,0.007,0.0062,0.0005,-0.0011,-0.0033,-0.0072,-0.0077,-0.0101,-0.0135,-0.0135,-0.0073,-0.0065,-0.0058,-0.0053,-0.0126,0,0,0,0,0,0.0174,0.0181,0.0174,0.0172,0.0174,0.0151,0.0143,0.0127,0.0099,0.0081,0.0036,-0.0007,-0.0034,-0.0058,-0.0092,-0.0113,-0.0146,-0.0111,-0.0104,-0.0097,-0.0102,-0.0122,-0.0117,-0.017,-0.017,-0.017,0,0,0.0175,0.0174,0.0178,0.0174,0.0164,0.0168,0.0143,0.014,0.0133,0.0074,0.0042,0.0015,-0.0032,-0.0051,-0.0064,-0.0084,-0.0098,-0.0095,-0.0089,-0.0097,-0.0119,-0.0114,-0.011,-0.0169,-0.0169,-0.0169,0,0,0.0186,0.018,0.0193,0.0194,0.0192,0.018,0.0184,0.0164,0.0146,0.0121,0.0088,0.0068,0.0008,-0.0012,-0.0032,-0.0007,-0.0055,-0.0012,0.002,0.0002,0.0006,0.0009,-0.0021,-0.0022,-0.0013,-0.0013,-0.0012,0,0.0182,0.0199,0.0195,0.0206,0.021,0.019,0.0203,0.0184,0.0151,0.0144,0.0118,0.0067,0.0027,0.0021,0.003,0.0009,-0.0013,-0.0008,0.0011,0.0014,0.0015,-0.0017,-0.0018,-0.0008,-0.0009,-0.0009,-0.001,0,0.0205,0.0219,0.0228,0.0238,0.0237,0.0247,0.0234,0.0224,0.02,0.0184,0.017,0.0124,0.0095,0.0089,0.006,0.0067,0.0043,0.0028,-0.0009,0.0026,-0.001,-0.0013,-0.0002,-0.0004,-0.0005,-0.0006,0,0,0.0189,0.0238,0.0237,0.026,0.0259,0.0264,0.0259,0.0258,0.0264,0.0226,0.023,0.0191,0.0177,0.0155,0.0131,0.0111,0.0106,0.0078,0.0075,0.005,0.0059,0.0055,0.005,0.0098,0.0098,0.0098,0.003,0,0.0205,0.0251,0.026,0.0293,0.0319,0.0308,0.0306,0.03,0.0285,0.0281,0.0249,0.024,0.02,0.0198,0.0175,0.0126,0.0102,0.0125,0.0025,0.0022,0.0016,0.0048,0.0062,0.0004,0.0026,0.0026,0.0025,0,0.0215,0.0251,0.0298,0.0343,0.035,0.036,0.037,0.037,0.0362,0.0349,0.034,0.0314,0.0288,0.025,0.0173,0.0191,0.013,0.0084,0.008,0.0043,0.0013,-0.0029,-0.0003,0.002,0.002,0.0021,0.0021,0,0.0215,0.027,0.0314,0.0329,0.0371,0.0384,0.0395,0.0394,0.0405,0.0404,0.0412,0.0372,0.036,0.028,0.0187,0.0179,0.0098,0.0072,0.0009,0.0006,-0.002,-0.0024,0.0016,0.0016,0.0016,0.0017,0.0017,0,0.0227,0.0263,0.0326,0.0353,0.0397,0.0413,0.0449,0.045,0.0466,0.05,0.0459,0.0474,0.0369,0.0313,0.021,0.0106,0.0113,0.0016,-0.0006,0.0009,0.001,-0.001,-0.0012,0.0014,0.0015,0.0015,0.0016,0,0.0225,0.0266,0.0322,0.0383,0.0404,0.0432,0.0486,0.0513,0.0525,0.0571,0.0575,0.0547,0.0479,0.0365,0.024,0.0148,0.0038,-0.0001,0.002,0.0003,-0.0053,-0.005,-0.0089,-0.009,-0.009,-0.0091,-0.0091,0,0.0236,0.0268,0.0341,0.037,0.0403,0.0456,0.0491,0.0529,0.0571,0.0622,0.0649,0.061,0.0589,0.04,0.0235,0.0057,0.0039,-0.0042,-0.0056,-0.0044,-0.0062,-0.0058,-0.0055,-0.0066,-0.0066,-0.0066,-0.0066,0,0.0252,0.0271,0.0314,0.0383,0.0432,0.0494,0.0562,0.0617,0.0679,0.0728,0.0788,0.0777,0.061,0.045,0.0218,0.0094,-0.0014,-0.0049,-0.0038,-0.0032,-0.0024,-0.0041,-0.0038,-0.0067,-0.0067,-0.0067,-0.0067,-0.0066,0.0251,0.0278,0.0332,0.0396,0.0453,0.0545,0.0622,0.0705,0.0803,0.0897,0.0881,0.0864,0.0668,0.0369,0.0183,-0.0013,-0.0019,-0.0096,-0.0094,-0.0093,-0.0069,-0.0062,-0.0108,-0.0108,-0.0108,-0.0108,-0.0108,0,0.0257,0.0292,0.0346,0.0434,0.0507,0.0537,0.0673,0.076,0.0904,0.0948,0.0988,0.08,0.0621,0.0403,0.0119,-0.0059,-0.0077,-0.0115,-0.0094,-0.0093,-0.0092,-0.0066,-0.0105,-0.0105,-0.0106,-0.0106,0,0,0.0262,0.0312,0.0351,0.0475,0.0536,0.066,0.0754,0.0871,0.0941,0.0996,0.0976,0.0913,0.066,0.0457,0.0219,0.0069,0.0027,0.003,0.0042,0.0095,0.0099,-0.0071,-0.0028,0,0,0,0,0]}],[{"header":{"parameterUnit":"m.s-1","parameterCategory":2,"la1":30.2991,"la2":30.254,"lo1":-89.0895,"lo2":-89.0444,"dx":0.0017,"dy":0.0017,"nx":28,"ny":28,"refTime":"2022-11-03T15:00:00:Z","depth":"4","parameterNumber":2,"parameterNumberName":"U-component_of_CURRENTS"},"data":[0,0,0,0,0,0,0,0,0,0,0,0,0,0,0,0,0,0,0,0,0,0,0,0,0,0,0,0,0,0,0,0,0,0,0,0,0,0,0,0,0,0,0,0,0,0,0,0,0,0,0,0,0,0,0,0,0,0,0.0617,0.0616,0,0.0573,0.0573,0.0573,0.0553,0.0552,0.0551,0.0551,0.053,0.053,0.053,0,0,0,0,0,0,0,0,0,0,0,0,0,0.07,0.0699,0.0617,0.0616,0.0615,0.0573,0.0573,0.0573,0.0553,0.0552,0.0551,0.055,0.053,0.053,0.053,0,0,0,0,0,0,0,0,0,0,0,0,0,0.0667,0.0698,0.0617,0.0594,0.0591,0.0573,0.0573,0.0573,0.0553,0.0552,0.0551,0.055,0.053,0.053,0.053,0.0548,0,0,0.053,0.053,0,0,0,0,0,0,0,0,0.0669,0.0665,0.0599,0.0596,0.0592,0.0561,0.0593,0.0563,0.0553,0.0575,0.0551,0.055,0.0538,0.0537,0.0541,0.0547,0.0546,0.053,0.053,0.053,0.053,0,0,0,0,0,0,0,0.0671,0.0667,0.0607,0.0597,0.0593,0.0591,0.0586,0.0588,0.0568,0.0573,0.057,0.0554,0.0537,0.0541,0.054,0.0546,0.053,0.053,0.053,0.053,0.063,0.0632,0,0,0,0,0,0,0.0662,0.0669,0.0608,0.0605,0.0621,0.0589,0.0584,0.0578,0.0568,0.0563,0.0554,0.0553,0.0542,0.054,0.0539,0.0596,0.053,0.053,0.053,0.0627,0.063,0.0633,0,0,0,0,0,0,0.0665,0.0658,0.061,0.0629,0.0622,0.0588,0.0581,0.0577,0.06,0.0552,0.0549,0.0582,0.0541,0.0539,0.0556,0.0593,0.053,0.053,0.0624,0.0628,0.0632,0.0685,0,0,0,0,0,0,0.0667,0.0659,0.0671,0.0629,0.062,0.0604,0.0581,0.0577,0.0586,0.0585,0.0575,0.057,0.054,0.0556,0.0556,0.0592,0.053,0.0621,0.0626,0.0631,0.068,0.0691,0.0699,0,0,0,0,0,0.0671,0.0664,0.0672,0.0665,0.0631,0.0603,0.0601,0.0577,0.0589,0.0598,0.0597,0.0572,0.0588,0.0558,0.0557,0.0594,0.0618,0.0624,0.063,0.0676,0.0688,0.0699,0,0,0,0,0,0,0.0699,0.066,0.0667,0.065,0.0638,0.0597,0.0596,0.0601,0.0611,0.0622,0.0593,0.0589,0.0609,0.0611,0.0578,0.0643,0.0605,0.0611,0.0641,0.0652,0.0662,0.0687,0.053,0,0,0,0,0,0.0715,0.0703,0.0675,0.0665,0.0661,0.0648,0.0643,0.0638,0.0628,0.0633,0.0628,0.0636,0.0634,0.0649,0.0638,0.0683,0.068,0.0715,0.0724,0.0732,0.0756,0.0792,0.0807,0.0653,0.0653,0.0653,0,0,0.0721,0.0698,0.0693,0.0672,0.0662,0.0662,0.0645,0.0644,0.0653,0.063,0.0658,0.0656,0.0649,0.0676,0.0691,0.0685,0.0771,0.074,0.0746,0.0766,0.08,0.0815,0.0828,0.0657,0.0656,0.0656,0,0,0.0719,0.0715,0.0712,0.0706,0.0696,0.0686,0.0697,0.069,0.0698,0.0715,0.0708,0.0745,0.0736,0.0756,0.0758,0.0831,0.0803,0.0835,0.0922,0.0956,0.0969,0.098,0.0968,0.0978,0.0862,0.0862,0.0862,0,0.0743,0.0725,0.0709,0.0709,0.0699,0.0704,0.071,0.0719,0.0725,0.0749,0.0725,0.0775,0.0773,0.0832,0.0862,0.0851,0.0852,0.0867,0.0967,0.0978,0.0988,0.0974,0.0983,0.0865,0.0865,0.0864,0.0864,0,0.0732,0.0737,0.073,0.0734,0.073,0.0731,0.0732,0.077,0.0781,0.0791,0.0844,0.0852,0.0893,0.0906,0.0902,0.1,0.0967,0.0951,0.0929,0.1006,0.0986,0.0995,0.087,0.0868,0.0867,0.0867,0,0,0.0741,0.0731,0.0734,0.0745,0.0745,0.074,0.0776,0.0805,0.0854,0.0874,0.0925,0.0964,0.1002,0.1015,0.1038,0.1094,0.1161,0.1077,0.1078,0.1051,0.1211,0.1098,0.1096,0.1163,0.1165,0.1168,0.1156,0,0.0749,0.0752,0.074,0.0757,0.0761,0.078,0.08,0.0839,0.0878,0.0936,0.098,0.1029,0.103,0.1079,0.1132,0.1145,0.1194,0.1164,0.1154,0.1154,0.1032,0.1107,0.1176,0.1163,0.1165,0.1166,0.1167,0,0.0743,0.0746,0.0758,0.0772,0.0776,0.0797,0.086,0.0885,0.097,0.1007,0.1091,0.1114,0.1211,0.1194,0.1264,0.1244,0.1253,0.1256,0.1254,0.1144,0.106,0.1079,0.1183,0.1182,0.1181,0.118,0.1179,0,0.0741,0.0756,0.0766,0.0769,0.0789,0.0824,0.0851,0.0925,0.0952,0.1091,0.1135,0.1221,0.1271,0.1303,0.1311,0.1303,0.1354,0.1326,0.1228,0.1217,0.1293,0.1282,0.1395,0.1395,0.1395,0.1395,0.1395,0,0.073,0.0741,0.0779,0.0787,0.0813,0.0836,0.0885,0.0956,0.1032,0.1078,0.1188,0.1236,0.1311,0.1334,0.1332,0.1293,0.1365,0.1259,0.1224,0.1312,0.1303,0.1297,0.1286,0.1394,0.1394,0.1394,0.1394,0,0.0701,0.0726,0.0743,0.0791,0.0811,0.0834,0.0876,0.0915,0.1022,0.1097,0.1144,0.1255,0.1299,0.1325,0.1367,0.1307,0.129,0.1265,0.1338,0.1304,0.112,0.1112,0.1147,0.1144,0.114,0.1138,0.1136,0,0.0667,0.068,0.074,0.0751,0.0775,0.0811,0.0826,0.091,0.0949,0.1085,0.111,0.1208,0.1266,0.1219,0.1259,0.1231,0.1225,0.1195,0.1194,0.1141,0.1104,0.1101,0.1097,0.1131,0.113,0.1129,0.1128,0,0.0602,0.0643,0.0662,0.0699,0.0728,0.0735,0.0783,0.0798,0.0899,0.0999,0.1069,0.1104,0.1144,0.1157,0.1155,0.1133,0.1199,0.1162,0.1168,0.1167,0.1121,0.1086,0.1087,0.1117,0.1119,0.112,0.1121,0,0.0547,0.0554,0.0599,0.0623,0.0652,0.0663,0.069,0.0729,0.0769,0.0934,0.094,0.1049,0.1136,0.1105,0.1089,0.1069,0.1052,0.1009,0.1023,0.1036,0.1003,0.0929,0.0855,0,0,0,0,0,0.0484,0.0495,0.0512,0.0539,0.0568,0.0595,0.0652,0.0684,0.0788,0.0814,0.0878,0.092,0.0944,0.0979,0.0935,0.1008,0.1036,0.0948,0.0989,0.1057,0.107,0.1042,0,0,0,0,0,0,0.0448,0.0457,0.0486,0.0462,0.0473,0.0496,0.0538,0.0612,0.0623,0.0744,0.076,0.0849,0.0876,0.0967,0.0918,0.0923,0.0922,0.0999,0.0995,0.105,0.1062,0.1072,0.1047,0,0,0,0,0]},{"header":{"parameterUnit":"m.s-1","parameterCategory":2,"la1":30.2991,"la2":30.254,"lo1":-89.0895,"lo2":-89.0444,"dx":0.0017,"dy":0.0017,"nx":28,"ny":28,"refTime":"2022-11-03T15:00:00:Z","depth":"4","parameterNumber":3,"parameterNumberName":"V-component_of_CURRENTS"},"data":[0,0,0,0,0,0,0,0,0,0,0,0,0,0,0,0,0,0,0,0,0,0,0,0,0,0,0,0,0,0,0,0,0,0,0,0,0,0,0,0,0,0,0,0,0,0,0,0,0,0,0,0,0,0,0,0,0,0,0.0215,0.0215,0,0.0233,0.0233,0.0234,0.0262,0.0263,0.0263,0.0264,0.028,0.028,0.028,0,0,0,0,0,0,0,0,0,0,0,0,0,0.0198,0.0198,0.0215,0.0215,0.0216,0.0233,0.0233,0.0234,0.0262,0.0263,0.0263,0.0264,0.028,0.028,0.028,0,0,0,0,0,0,0,0,0,0,0,0,0,0.021,0.0198,0.0215,0.0231,0.0233,0.0233,0.0233,0.0234,0.0262,0.0263,0.0264,0.0264,0.028,0.028,0.028,0.0266,0,0,0.028,0.028,0,0,0,0,0,0,0,0,0.021,0.0211,0.0229,0.023,0.0232,0.0245,0.0233,0.0244,0.0262,0.0252,0.0264,0.0265,0.0267,0.0268,0.0271,0.0267,0.0268,0.028,0.028,0.028,0.028,0,0,0,0,0,0,0,0.0209,0.021,0.0223,0.0229,0.0231,0.0235,0.0237,0.0235,0.0256,0.0253,0.0255,0.0255,0.0268,0.0271,0.0272,0.0268,0.028,0.028,0.028,0.028,0.025,0.0249,0,0,0,0,0,0,0.0205,0.021,0.0223,0.0224,0.0221,0.0234,0.0238,0.0241,0.0256,0.0259,0.0255,0.0256,0.0271,0.0272,0.0272,0.0271,0.028,0.028,0.028,0.0251,0.025,0.0249,0,0,0,0,0,0,0.0204,0.0206,0.0222,0.0216,0.0218,0.0234,0.0238,0.0241,0.0254,0.0257,0.0261,0.0265,0.0271,0.0272,0.0273,0.0271,0.028,0.028,0.0252,0.0251,0.025,0.0259,0,0,0,0,0,0,0.0204,0.0205,0.0206,0.0216,0.0219,0.0233,0.0237,0.0241,0.0252,0.0255,0.0267,0.0269,0.0272,0.0273,0.0273,0.0271,0.028,0.0253,0.0251,0.025,0.0259,0.0258,0.0257,0,0,0,0,0,0.0203,0.0207,0.0206,0.0208,0.022,0.0234,0.0236,0.0249,0.0252,0.0263,0.0262,0.0269,0.0263,0.0272,0.0273,0.0271,0.0254,0.0252,0.025,0.026,0.0258,0.0257,0,0,0,0,0,0,0.0198,0.021,0.021,0.0217,0.0227,0.0239,0.0247,0.0252,0.026,0.0263,0.0264,0.0265,0.0263,0.0261,0.0271,0.0255,0.0257,0.0255,0.0265,0.0263,0.0262,0.0257,0.028,0,0,0,0,0,0.0195,0.0207,0.0214,0.0221,0.0226,0.0235,0.0241,0.0252,0.0259,0.0264,0.0266,0.0262,0.0253,0.0255,0.025,0.0245,0.0221,0.024,0.0239,0.0238,0.0232,0.0171,0.0164,0.0243,0.0243,0.0243,0,0,0.0194,0.0204,0.0209,0.0221,0.023,0.0236,0.0242,0.0259,0.0264,0.0262,0.0269,0.0261,0.0249,0.0244,0.0242,0.0245,0.0207,0.0236,0.0235,0.023,0.0169,0.0161,0.0154,0.0242,0.0242,0.0242,0,0,0.0202,0.0207,0.0219,0.023,0.0246,0.0246,0.0252,0.0264,0.0272,0.0274,0.0266,0.0249,0.0252,0.0233,0.0225,0.0209,0.02,0.0214,0.0209,0.015,0.0143,0.0137,0.0116,0.0108,0.0216,0.0216,0.0216,0,0.0196,0.0214,0.0224,0.0239,0.0247,0.025,0.026,0.0264,0.0274,0.0271,0.0279,0.0246,0.024,0.0211,0.0208,0.0206,0.0186,0.0221,0.0149,0.0142,0.0135,0.0115,0.0105,0.0216,0.0216,0.0216,0.0216,0,0.0214,0.0227,0.0237,0.0252,0.026,0.0274,0.0277,0.0281,0.0282,0.0277,0.0259,0.024,0.0219,0.0212,0.021,0.016,0.0168,0.0154,0.0155,0.0127,0.0108,0.0098,0.0216,0.0216,0.0216,0.0216,0,0,0.0196,0.024,0.0242,0.0257,0.0272,0.0281,0.0283,0.028,0.0277,0.0269,0.0252,0.0225,0.021,0.0198,0.0184,0.0136,0.0078,0.0131,0.0128,0.0116,-0.0024,0.0001,-0.0007,0.0053,0.0051,0.0049,-0.001,0,0.0204,0.0238,0.0254,0.0274,0.0289,0.0294,0.0295,0.0293,0.0287,0.027,0.0233,0.0216,0.0207,0.0199,0.0145,0.0092,0.0049,0.0097,-0.0001,-0.0003,0.0026,-0.002,0.0042,-0.0018,-0.002,-0.0022,-0.0023,0,0.021,0.0235,0.0266,0.0295,0.03,0.0307,0.0308,0.0317,0.029,0.0283,0.0248,0.0223,0.016,0.0153,0.004,0.0074,0.0026,-0.0017,-0.0021,-0.0011,0.0002,0.0009,-0.0042,-0.004,-0.0039,-0.0038,-0.0036,0,0.02,0.0238,0.0266,0.0278,0.0307,0.0316,0.0327,0.0319,0.0329,0.0293,0.0284,0.0206,0.0177,0.0085,0.0014,0.0019,-0.0109,-0.0118,-0.0139,-0.0136,-0.0142,-0.0135,-0.021,-0.021,-0.021,-0.021,-0.021,0,0.0203,0.0224,0.0267,0.0285,0.031,0.033,0.0346,0.0347,0.0341,0.0347,0.0297,0.0272,0.0156,0.0081,0.0003,-0.0091,-0.0121,-0.0152,-0.0164,-0.0133,-0.0124,-0.0148,-0.014,-0.0212,-0.0212,-0.0211,-0.0211,0,0.0196,0.0226,0.026,0.0298,0.0314,0.0336,0.0376,0.0389,0.0384,0.0387,0.0379,0.0308,0.021,0.0107,-0.0037,-0.0089,-0.0191,-0.0213,-0.0148,-0.0153,-0.0175,-0.0165,-0.0261,-0.0261,-0.0261,-0.0261,-0.0261,0,0.0201,0.022,0.0271,0.0301,0.0324,0.0363,0.0393,0.0409,0.0429,0.0412,0.0412,0.0326,0.0269,0.009,-0.0027,-0.0177,-0.0191,-0.023,-0.0233,-0.0185,-0.0187,-0.0178,-0.0169,-0.0261,-0.0261,-0.0261,-0.0261,0,0.0209,0.0225,0.0256,0.0316,0.0358,0.0401,0.0446,0.0457,0.0481,0.047,0.0435,0.0346,0.0239,0.0095,-0.0009,-0.0119,-0.0207,-0.023,-0.0231,-0.0235,-0.0185,-0.0185,-0.0177,-0.0261,-0.0261,-0.0261,-0.0261,0,0.0218,0.0235,0.0282,0.0332,0.0386,0.0433,0.045,0.0476,0.0492,0.0482,0.0464,0.0352,0.0283,0.0126,0.0021,-0.0079,-0.0111,-0.0136,-0.0143,-0.0145,-0.0093,-0.0012,-0.0058,0,0,0,0,0,0.0231,0.0256,0.03,0.0356,0.0405,0.0437,0.0488,0.0503,0.0516,0.0503,0.0489,0.0394,0.0235,0.0155,0.0057,0.001,-0.0134,-0.0108,-0.0168,-0.0259,-0.026,-0.0218,0,0,0,0,0,0,0.0243,0.0285,0.03,0.0368,0.0405,0.0464,0.0494,0.0505,0.0497,0.0492,0.0403,0.0373,0.0209,0.0286,0.0053,0.0021,-0.0027,-0.0183,-0.0185,-0.0259,-0.0259,-0.026,-0.0216,0,0,0,0,0]}]]